HINODE (SOLAR-B)

Last updated on Sat Apr 13 2024 01:03:19 GMT+0100 (British Summer Time)

1 29479U 06041A 24103.56435850 .00001022 00000+0 19419-3 0 9999 2 29479 98.0940 119.8114 0016604 289.8118 70.1296 14.66200062938161
UTC large
Height (km)
Speed (km/s)
/
Latitude / Longitude
Inclination (degrees)
Orbital Period (minutes)
Azimuth
Elevation
Range (km)
Doppler Factor

Next 0 passes for location: London (51.5072 / 0.1276)

Sorry there are no passes over London.